| time (UTC) | temp C | wind direction | speed KPH | gust KPH | rain 1hr cm | rain 24hr cm | rain mn cm | humidity % | barometer mb |
| 20260502210545 | 8 | 319 | 4.8 | 4.8 | 0.00 | 0.00 | 0.00 | 54 | 1015.7 |
| 20260502210042 | 8 | 290 | 3.2 | 3.2 | 0.00 | 0.00 | 0.00 | 53 | 1016.0 |
| 20260502205538 | 8 | 270 | 3.2 | 3.2 | 0.00 | 0.00 | 0.00 | 52 | 1016.0 |
| 20260502205036 | 8 | 309 | 0.0 | 0.0 | 0.00 | 0.00 | 0.00 | 49 | 1016.0 |
| 20260502204532 | 8 | 294 | 9.7 | 9.7 | 0.00 | 0.00 | 0.00 | 51 | 1016.0 |
| 20260502204030 | 8 | 223 | 3.2 | 3.2 | 0.00 | 0.00 | 0.00 | 53 | 1016.0 |
| 20260502203527 | 8 | 276 | 0.0 | 0.0 | 0.00 | 0.00 | 0.00 | 57 | 1016.0 |
| 20260502203024 | 8 | 247 | 0.0 | 0.0 | 0.00 | 0.00 | 0.00 | 56 | 1016.0 |
| 20260502202520 | 8 | 264 | 4.8 | 6.4 | 0.00 | 0.00 | 0.00 | 56 | 1016.0 |
| 20260502202019 | 8 | 252 | 0.0 | 0.0 | 0.00 | 0.00 | 0.00 | 53 | 1016.0 |
| 20260502201514 | 8 | 336 | 0.0 | 0.0 | 0.00 | 0.00 | 0.00 | 55 | 1016.5 |
| 20260502201011 | 8 | 342 | 0.0 | 0.0 | 0.00 | 0.00 | 0.00 | 53 | 1016.5 |
| 20260502200507 | 8 | 279 | 3.2 | 3.2 | 0.00 | 0.00 | 0.00 | 55 | 1016.5 |
| 20260502200005 | 8 | 318 | 1.6 | 1.6 | 0.00 | 0.00 | 0.00 | 56 | 1016.5 |
| 20260502195502 | 8 | 306 | 8.0 | 8.0 | 0.00 | 0.00 | 0.00 | 52 | 1016.5 |
| 20260502194957 | 8 | 276 | 3.2 | 3.2 | 0.00 | 0.00 | 0.00 | 50 | 1016.5 |
| 20260502194455 | 8 | 325 | 8.0 | 9.7 | 0.00 | 0.00 | 0.00 | 55 | 1016.5 |
| 20260502193950 | 8 | 274 | 6.4 | 6.4 | 0.00 | 0.00 | 0.00 | 53 | 1016.5 |
| 20260502193448 | 8 | 320 | 3.2 | 3.2 | 0.00 | 0.00 | 0.00 | 58 | 1016.5 |
| 20260502192944 | 7 | 327 | 4.8 | 4.8 | 0.00 | 0.00 | 0.00 | 58 | 1016.8 |
| 20260502192441 | 7 | 276 | 0.0 | 0.0 | 0.00 | 0.00 | 0.00 | 57 | 1016.8 |
| 20260502191937 | 7 | 307 | 8.0 | 9.7 | 0.00 | 0.00 | 0.00 | 58 | 1016.8 |
| 20260502191435 | 7 | 330 | 11.3 | 11.3 | 0.00 | 0.00 | 0.00 | 55 | 1016.8 |
| 20260502190933 | 8 | 252 | 6.4 | 6.4 | 0.00 | 0.00 | 0.00 | 57 | 1016.8 |
| 20260502190430 | 8 | 306 | 4.8 | 4.8 | 0.00 | 0.00 | 0.00 | 55 | 1016.8 |
| 20260502185926 | 8 | 282 | 4.8 | 4.8 | 0.00 | 0.00 | 0.00 | 53 | 1016.8 |
| 20260502185421 | 8 | 348 | 3.2 | 3.2 | 0.00 | 0.00 | 0.00 | 53 | 1016.8 |
| 20260502184919 | 8 | 307 | 4.8 | 4.8 | 0.00 | 0.00 | 0.00 | 55 | 1016.8 |
| 20260502184414 | 8 | 282 | 3.2 | 3.2 | 0.00 | 0.00 | 0.00 | 51 | 1016.8 |
| 20260502183911 | 8 | 294 | 0.0 | 0.0 | 0.00 | 0.00 | 0.00 | 58 | 1016.8 |
| 20260502183407 | 7 | 312 | 3.2 | 3.2 | 0.00 | 0.00 | 0.00 | 58 | 1016.8 |
| 20260502182902 | 7 | 282 | 3.2 | 3.2 | 0.00 | 0.00 | 0.00 | 60 | 1017.2 |
| 20260502182358 | 7 | 330 | 9.7 | 9.7 | 0.00 | 0.00 | 0.00 | 59 | 1017.2 |
| 20260502181854 | 7 | 277 | 1.6 | 1.6 | 0.00 | 0.00 | 0.00 | 59 | 1017.2 |
| 20260502181353 | 7 | 169 | 0.0 | 0.0 | 0.00 | 0.00 | 0.00 | 56 | 1017.2 |
| 20260502180851 | 8 | 312 | 4.8 | 4.8 | 0.00 | 0.00 | 0.00 | 56 | 1017.2 |
| 20260502180348 | 7 | 330 | 3.2 | 3.2 | 0.00 | 0.00 | 0.00 | 56 | 1017.2 |
| 20260502170307 | 6 | 276 | 4.8 | 4.8 | 0.00 | 0.00 | 0.00 | 66 | 1017.5 |
| 20260502164254 | 6 | 292 | 6.4 | 6.4 | 0.00 | 0.00 | 0.00 | 66 | 1017.5 |
| 20260502163750 | 6 | 319 | 6.4 | 6.4 | 0.00 | 0.00 | 0.00 | 65 | 1017.5 |
| 20260502163247 | 6 | 318 | 6.4 | 6.4 | 0.00 | 0.00 | 0.00 | 62 | 1017.5 |
| 20260502162744 | 6 | 318 | 8.0 | 8.0 | 0.00 | 0.00 | 0.00 | 65 | 1017.5 |
| 20260502162240 | 6 | 359 | 9.7 | 9.7 | 0.00 | 0.00 | 0.00 | 64 | 1017.5 |
| 20260502161737 | 6 | 353 | 6.4 | 6.4 | 0.00 | 0.00 | 0.00 | 63 | 1017.5 |
| 20260502161234 | 6 | 330 | 3.2 | 3.2 | 0.00 | 0.00 | 0.00 | 64 | 1017.8 |
| 20260502160732 | 6 | 312 | 9.7 | 9.7 | 0.00 | 0.00 | 0.00 | 63 | 1017.8 |
| 20260502160231 | 6 | 342 | 9.7 | 9.7 | 0.00 | 0.00 | 0.00 | 65 | 1017.8 |
| 20260502152154 | 6 | 58 | 8.0 | 9.7 | 0.00 | 0.00 | 0.00 | 65 | 1017.5 |
| 20260502151652 | 5 | 17 | 9.7 | 11.3 | 0.00 | 0.00 | 0.00 | 71 | 1017.5 |
| 20260502151149 | 6 | 40 | 12.9 | 14.5 | 0.00 | 0.00 | 0.00 | 72 | 1017.5 |
| 20260502150647 | 6 | 70 | 6.4 | 6.4 | 0.00 | 0.00 | 0.00 | 73 | 1017.5 |
| 20260502150143 | 5 | 30 | 8.0 | 9.7 | 0.00 | 0.00 | 0.00 | 76 | 1017.5 |
| 20260502140106 | 5 | 306 | 4.8 | 4.8 | 0.00 | 0.00 | 0.00 | 86 | 1016.8 |
| 20260502130531 | 4 | 294 | 9.7 | 9.7 | 0.00 | 0.00 | 0.00 | 83 | 1016.8 |
| 20260502123515 | 3 | 306 | 6.4 | 6.4 | 0.00 | 0.00 | 0.00 | 87 | 1017.2 |
| 20260502123011 | 3 | 312 | 8.0 | 9.7 | 0.00 | 0.00 | 0.00 | 87 | 1017.2 |
| 20260502122508 | 3 | 290 | 6.4 | 6.4 | 0.00 | 0.00 | 0.00 | 85 | 1016.5 |
| 20260502122005 | 4 | 300 | 9.7 | 11.3 | 0.00 | 0.00 | 0.00 | 83 | 1016.5 |
| 20260502121503 | 4 | 300 | 6.4 | 6.4 | 0.00 | 0.00 | 0.00 | 79 | 1016.8 |
| 20260502121000 | 4 | 300 | 8.0 | 8.0 | 0.00 | 0.00 | 0.00 | 79 | 1016.8 |
| 20260502120456 | 4 | 312 | 4.8 | 4.8 | 0.00 | 0.00 | 0.00 | 82 | 1016.8 |
| 20260502115450 | 4 | 294 | 6.4 | 6.4 | 0.00 | 0.00 | 0.00 | 81 | 1016.5 |
| 20260502114946 | 4 | 332 | 4.8 | 4.8 | 0.00 | 0.00 | 0.00 | 83 | 1016.5 |
| 20260502114443 | 4 | 346 | 0.0 | 0.0 | 0.00 | 0.00 | 0.00 | 85 | 1016.5 |
| 20260502113940 | 4 | 346 | 0.0 | 0.0 | 0.00 | 0.00 | 0.00 | 84 | 1016.5 |
| 20260502113438 | 4 | 320 | 0.0 | 0.0 | 0.00 | 0.00 | 0.00 | 85 | 1016.5 |
| 20260502112937 | 4 | 342 | 0.0 | 0.0 | 0.00 | 0.00 | 0.00 | 86 | 1016.0 |
| 20260502112434 | 4 | 294 | 0.0 | 0.0 | 0.00 | 0.00 | 0.00 | 90 | 1016.0 |
| 20260502111931 | 3 | 306 | 0.0 | 0.0 | 0.00 | 0.00 | 0.00 | 92 | 1016.0 |
| 20260502111428 | 3 | 288 | 0.0 | 0.0 | 0.00 | 0.00 | 0.00 | 93 | 1016.5 |
| 20260502110925 | 3 | 306 | 0.0 | 0.0 | 0.00 | 0.00 | 0.00 | 93 | 1016.5 |
| 20260502110423 | 3 | 52 | 0.0 | 0.0 | 0.00 | 0.00 | 0.00 | 93 | 1016.5 |
| 20260502105920 | 3 | 51 | 0.0 | 0.0 | 0.00 | 0.00 | 0.00 | 93 | 1016.5 |
| 20260502105417 | 3 | 53 | 0.0 | 0.0 | 0.00 | 0.00 | 0.00 | 92 | 1016.5 |
| 20260502104915 | 3 | 53 | 0.0 | 0.0 | 0.00 | 0.00 | 0.00 | 92 | 1016.5 |
| 20260502104412 | 3 | 53 | 0.0 | 0.0 | 0.00 | 0.00 | 0.00 | 91 | 1016.0 |
| 20260502103909 | 3 | 53 | 0.0 | 0.0 | 0.00 | 0.00 | 0.00 | 91 | 1016.0 |
| 20260502103407 | 3 | 53 | 0.0 | 0.0 | 0.00 | 0.00 | 0.00 | 90 | 1016.0 |
| 20260502102904 | 3 | 48 | 0.0 | 0.0 | 0.00 | 0.00 | 0.00 | 90 | 1016.0 |
| 20260502102400 | 3 | 353 | 0.0 | 0.0 | 0.00 | 0.00 | 0.00 | 91 | 1016.0 |
| 20260502101858 | 3 | 336 | 0.0 | 0.0 | 0.00 | 0.00 | 0.00 | 91 | 1016.0 |
| 20260502101356 | 3 | 345 | 0.0 | 0.0 | 0.00 | 0.00 | 0.00 | 91 | 1015.7 |
| 20260502100854 | 3 | 306 | 3.2 | 3.2 | 0.00 | 0.00 | 0.00 | 92 | 1015.7 |
| 20260502100353 | 3 | 0 | 0.0 | 0.0 | 0.00 | 0.00 | 0.00 | 92 | 1015.7 |
| 20260502091327 | 3 | 16 | 4.8 | 4.8 | 0.00 | 0.00 | 0.00 | 91 | 1015.7 |
| 20260502090825 | 3 | 36 | 6.4 | 6.4 | 0.00 | 0.00 | 0.00 | 91 | 1015.7 |
| 20260502090321 | 3 | 10 | 6.4 | 6.4 | 0.00 | 0.00 | 0.00 | 91 | 1015.7 |
| 20260502071216 | 3 | 222 | 0.0 | 0.0 | 0.00 | 0.00 | 0.00 | 90 | 1015.4 |
| 20260502070715 | 3 | 252 | 0.0 | 0.0 | 0.00 | 0.00 | 0.00 | 90 | 1015.4 |
| 20260502070212 | 3 | 228 | 0.0 | 0.0 | 0.00 | 0.00 | 0.00 | 90 | 1015.4 |
| 20260502065710 | 3 | 192 | 0.0 | 0.0 | 0.00 | 0.00 | 0.00 | 90 | 1015.4 |
| 20260502065208 | 3 | 228 | 0.0 | 0.0 | 0.00 | 0.00 | 0.00 | 90 | 1015.4 |
| 20260502064706 | 4 | 210 | 0.0 | 0.0 | 0.00 | 0.00 | 0.00 | 90 | 1015.4 |
| 20260502064203 | 4 | 204 | 0.0 | 0.0 | 0.00 | 0.00 | 0.00 | 90 | 1015.4 |
| 20260502063701 | 4 | 216 | 0.0 | 0.0 | 0.00 | 0.00 | 0.00 | 90 | 1015.4 |
| 20260502063158 | 4 | 216 | 0.0 | 0.0 | 0.00 | 0.00 | 0.00 | 90 | 1015.4 |
| 20260502062655 | 4 | 204 | 0.0 | 0.0 | 0.00 | 0.00 | 0.00 | 91 | 1015.4 |
| 20260502062153 | 4 | 210 | 0.0 | 0.0 | 0.00 | 0.00 | 0.00 | 91 | 1015.4 |
| 20260502061651 | 4 | 200 | 0.0 | 0.0 | 0.00 | 0.00 | 0.00 | 91 | 1015.4 |
| 20260502061148 | 4 | 185 | 0.0 | 0.0 | 0.00 | 0.00 | 0.00 | 90 | 1015.4 |
| 20260502060648 | 4 | 200 | 0.0 | 0.0 | 0.00 | 0.00 | 0.00 | 90 | 1015.4 |
| 20260502060145 | 4 | 146 | 0.0 | 0.0 | 0.00 | 0.00 | 0.00 | 90 | 1015.4 |
| 20260502055643 | 4 | 173 | 0.0 | 0.0 | 0.00 | 0.00 | 0.00 | 89 | 1015.4 |
| 20260502055141 | 4 | 216 | 0.0 | 0.0 | 0.00 | 0.00 | 0.00 | 90 | 1015.4 |
| 20260502054640 | 5 | 180 | 0.0 | 0.0 | 0.00 | 0.00 | 0.00 | 91 | 1015.4 |
| 20260502054136 | 5 | 228 | 0.0 | 0.0 | 0.00 | 0.00 | 0.00 | 92 | 1015.4 |
| 20260502053634 | 5 | 222 | 0.0 | 0.0 | 0.00 | 0.00 | 0.00 | 92 | 1015.4 |
| 20260502053131 | 5 | 168 | 0.0 | 0.0 | 0.00 | 0.00 | 0.00 | 93 | 1015.4 |
| 20260502052629 | 5 | 204 | 0.0 | 0.0 | 0.00 | 0.00 | 0.00 | 92 | 1015.7 |
| 20260502052127 | 5 | 204 | 0.0 | 0.0 | 0.00 | 0.00 | 0.00 | 91 | 1015.7 |
| 20260502051625 | 5 | 204 | 0.0 | 0.0 | 0.00 | 0.00 | 0.00 | 91 | 1015.7 |
| 20260502051123 | 5 | 198 | 0.0 | 0.0 | 0.00 | 0.00 | 0.00 | 91 | 1015.7 |
| 20260502050619 | 5 | 180 | 0.0 | 0.0 | 0.00 | 0.00 | 0.00 | 91 | 1015.7 |
| 20260502050115 | 5 | 184 | 0.0 | 0.0 | 0.00 | 0.00 | 0.00 | 89 | 1015.7 |
| 20260502045612 | 5 | 210 | 0.0 | 0.0 | 0.00 | 0.00 | 0.00 | 89 | 1016.0 |
| 20260502045110 | 5 | 220 | 0.0 | 0.0 | 0.00 | 0.00 | 0.00 | 90 | 1016.0 |
| 20260502044606 | 5 | 186 | 0.0 | 0.0 | 0.00 | 0.00 | 0.00 | 89 | 1016.0 |
| 20260502044102 | 5 | 179 | 0.0 | 0.0 | 0.00 | 0.00 | 0.00 | 87 | 1015.7 |
| 20260502043600 | 6 | 152 | 0.0 | 0.0 | 0.00 | 0.00 | 0.00 | 86 | 1015.7 |
| 20260502043057 | 6 | 109 | 3.2 | 3.2 | 0.00 | 0.00 | 0.00 | 85 | 1015.7 |
| 20260502042551 | 6 | 247 | 0.0 | 0.0 | 0.00 | 0.00 | 0.00 | 84 | 1015.7 |
| 20260502042049 | 6 | 306 | 3.2 | 3.2 | 0.00 | 0.00 | 0.00 | 82 | 1015.7 |
| 20260502041546 | 5 | 331 | 4.8 | 4.8 | 0.00 | 0.00 | 0.00 | 86 | 1015.7 |
| 20260502041043 | 6 | 222 | 0.0 | 0.0 | 0.00 | 0.00 | 0.00 | 88 | 1015.7 |
| 20260502040540 | 6 | 172 | 0.0 | 0.0 | 0.00 | 0.00 | 0.00 | 87 | 1015.7 |
| 20260502040037 | 6 | 228 | 3.2 | 3.2 | 0.00 | 0.00 | 0.00 | 87 | 1015.7 |
| 20260502035532 | 6 | 222 | 0.0 | 0.0 | 0.00 | 0.94 | 0.94 | 89 | 1015.7 |
| 20260502035030 | 6 | 174 | 0.0 | 0.0 | 0.00 | 0.94 | 0.94 | 88 | 1015.7 |
| 20260502034528 | 5 | 222 | 0.0 | 0.0 | 0.00 | 0.94 | 0.94 | 89 | 1015.7 |
| 20260502034026 | 6 | 36 | 0.0 | 0.0 | 0.00 | 0.94 | 0.94 | 90 | 1015.7 |
| 20260502033524 | 5 | 336 | 4.8 | 4.8 | 0.00 | 0.94 | 0.94 | 90 | 1015.7 |
| 20260502033021 | 5 | 78 | 1.6 | 1.6 | 0.00 | 0.94 | 0.94 | 92 | 1015.7 |
| 20260502032517 | 5 | 228 | 0.0 | 0.0 | 0.00 | 0.94 | 0.94 | 91 | 1015.4 |
| 20260502032014 | 5 | 274 | 0.0 | 0.0 | 0.00 | 0.94 | 0.94 | 90 | 1015.4 |
| 20260502031512 | 5 | 264 | 0.0 | 0.0 | 0.00 | 0.94 | 0.94 | 90 | 1015.4 |
| 20260502031010 | 5 | 264 | 0.0 | 0.0 | 0.00 | 0.94 | 0.94 | 91 | 1015.4 |
| 20260502030508 | 5 | 264 | 0.0 | 0.0 | 0.00 | 0.94 | 0.94 | 91 | 1015.4 |
| 20260502030006 | 5 | 270 | 0.0 | 0.0 | 0.00 | 0.94 | 0.94 | 91 | 1015.4 |
| 20260502025503 | 5 | 270 | 0.0 | 0.0 | 0.00 | 0.94 | 0.94 | 90 | 1015.4 |
| 20260502025001 | 5 | 306 | 3.2 | 3.2 | 0.00 | 0.94 | 0.94 | 90 | 1015.4 |
| 20260502024458 | 5 | 294 | 0.0 | 0.0 | 0.00 | 0.94 | 0.94 | 91 | 1015.0 |
| 20260502023956 | 5 | 258 | 0.0 | 0.0 | 0.00 | 0.94 | 0.94 | 92 | 1015.0 |
| 20260502023453 | 5 | 258 | 0.0 | 0.0 | 0.00 | 0.94 | 0.94 | 91 | 1015.0 |
| 20260502022951 | 5 | 258 | 0.0 | 0.0 | 0.00 | 0.94 | 0.94 | 90 | 1015.4 |
| 20260502022447 | 5 | 258 | 0.0 | 0.0 | 0.00 | 0.94 | 0.94 | 90 | 1015.4 |
| 20260502021944 | 5 | 258 | 0.0 | 0.0 | 0.00 | 0.94 | 0.94 | 90 | 1015.4 |
| 20260502021442 | 5 | 276 | 0.0 | 0.0 | 0.00 | 0.94 | 0.94 | 90 | 1015.4 |
| 20260502020938 | 6 | 276 | 0.0 | 0.0 | 0.00 | 0.94 | 0.94 | 88 | 1015.4 |
| 20260502020437 | 6 | 325 | 0.0 | 0.0 | 0.00 | 0.94 | 0.94 | 87 | 1015.4 |
| 20260502015932 | 6 | 341 | 3.2 | 3.2 | 0.05 | 0.94 | 0.94 | 85 | 1015.0 |
| 20260502015431 | 6 | 342 | 6.4 | 6.4 | 0.03 | 0.91 | 0.91 | 84 | 1015.0 |
| 20260502014927 | 6 | 302 | 0.0 | 0.0 | 0.03 | 0.91 | 0.91 | 85 | 1015.0 |
| 20260502014424 | 6 | 306 | 3.2 | 3.2 | 0.03 | 0.91 | 0.91 | 85 | 1015.0 |
| 20260502013920 | 5 | 294 | 3.2 | 3.2 | 0.03 | 0.91 | 0.91 | 85 | 1015.0 |
| 20260502013416 | 6 | 270 | 0.0 | 0.0 | 0.03 | 0.91 | 0.91 | 87 | 1015.0 |
| 20260502012913 | 6 | 270 | 0.0 | 0.0 | 0.03 | 0.91 | 0.91 | 85 | 1014.7 |
| 20260502012411 | 5 | 270 | 3.2 | 3.2 | 0.03 | 0.91 | 0.91 | 86 | 1014.7 |
| 20260502011908 | 5 | 306 | 3.2 | 3.2 | 0.03 | 0.91 | 0.91 | 88 | 1014.7 |
| 20260502011404 | 5 | 176 | 0.0 | 0.0 | 0.03 | 0.91 | 0.91 | 89 | 1014.4 |
| 20260502010901 | 5 | 255 | 0.0 | 0.0 | 0.03 | 0.91 | 0.91 | 89 | 1014.4 |
| 20260502010357 | 6 | 288 | 4.8 | 4.8 | 0.00 | 0.89 | 0.89 | 84 | 1014.4 |
| 20260502005854 | 6 | 294 | 4.8 | 4.8 | 0.03 | 0.89 | 0.89 | 80 | 1014.4 |
| 20260502005352 | 6 | 216 | 6.4 | 6.4 | 0.00 | 0.86 | 0.86 | 83 | 1014.4 |
| 20260502004849 | 6 | 326 | 6.4 | 6.4 | 0.00 | 0.86 | 0.86 | 81 | 1014.4 |
| 20260502004345 | 6 | 29 | 6.4 | 6.4 | 0.00 | 0.86 | 0.86 | 81 | 1014.4 |
| 20260502003843 | 6 | 22 | 4.8 | 4.8 | 0.00 | 0.86 | 0.86 | 80 | 1014.4 |
| 20260502003340 | 6 | 348 | 6.4 | 6.4 | 0.00 | 0.86 | 0.86 | 82 | 1014.4 |
| 20260502002836 | 6 | 330 | 0.0 | 0.0 | 0.00 | 0.86 | 0.86 | 81 | 1013.7 |
| 20260502002334 | 6 | 174 | 0.0 | 0.0 | 0.00 | 0.86 | 0.86 | 81 | 1013.7 |
| 20260502001831 | 6 | 54 | 6.4 | 6.4 | 0.00 | 0.86 | 0.86 | 79 | 1013.7 |
| 20260502001329 | 6 | 208 | 0.0 | 0.0 | 0.00 | 0.86 | 0.86 | 79 | 1014.0 |
| 20260502000826 | 6 | 12 | 6.4 | 6.4 | 0.00 | 0.86 | 0.86 | 79 | 1014.0 |
| 20260502000325 | 7 | 354 | 6.4 | 6.4 | 0.00 | 0.86 | 0.86 | 78 | 1014.0 |
| 20260501235820 | 7 | 42 | 4.8 | 4.8 | 0.00 | 0.86 | 0.86 | 76 | 1014.0 |
| 20260501235316 | 7 | 8 | 4.8 | 6.4 | 0.00 | 0.86 | 0.86 | 75 | 1014.0 |
| 20260501234811 | 7 | 356 | 4.8 | 4.8 | 0.00 | 0.86 | 0.86 | 75 | 1014.0 |
| 20260501234309 | 7 | 324 | 4.8 | 6.4 | 0.00 | 0.86 | 0.86 | 79 | 1014.0 |
| 20260501233807 | 7 | 263 | 0.0 | 0.0 | 0.00 | 0.86 | 0.86 | 79 | 1014.0 |
| 20260501233304 | 7 | 208 | 0.0 | 0.0 | 0.00 | 0.86 | 0.86 | 77 | 1014.0 |
| 20260501232759 | 7 | 196 | 0.0 | 0.0 | 0.00 | 0.86 | 0.86 | 77 | 1013.7 |
| 20260501232257 | 7 | 218 | 0.0 | 0.0 | 0.00 | 0.86 | 0.86 | 76 | 1013.7 |
| 20260501231754 | 8 | 230 | 0.0 | 0.0 | 0.00 | 0.86 | 0.86 | 76 | 1013.7 |
| 20260501231252 | 7 | 188 | 0.0 | 0.0 | 0.00 | 0.86 | 0.86 | 75 | 1013.7 |
| 20260501230750 | 8 | 246 | 0.0 | 0.0 | 0.00 | 0.86 | 0.86 | 78 | 1013.7 |
| 20260501230249 | 8 | 202 | 0.0 | 0.0 | 0.00 | 0.86 | 0.86 | 75 | 1013.7 |
| 20260501225746 | 8 | 208 | 0.0 | 0.0 | 0.00 | 0.86 | 0.86 | 74 | 1014.0 |
| 20260501225243 | 8 | 208 | 0.0 | 0.0 | 0.00 | 0.86 | 0.86 | 77 | 1014.0 |
| 20260501224739 | 8 | 222 | 3.2 | 3.2 | 0.00 | 0.86 | 0.86 | 76 | 1014.0 |
| 20260501224237 | 8 | 224 | 4.8 | 4.8 | 0.00 | 0.86 | 0.86 | 73 | 1013.7 |
| 20260501223733 | 8 | 224 | 3.2 | 3.2 | 0.00 | 0.86 | 0.86 | 73 | 1013.7 |
| 20260501223229 | 8 | 216 | 3.2 | 3.2 | 0.00 | 0.86 | 0.86 | 77 | 1013.7 |
| 20260501222725 | 8 | 236 | 0.0 | 0.0 | 0.00 | 0.86 | 0.86 | 75 | 1014.0 |
| 20260501222223 | 8 | 228 | 1.6 | 1.6 | 0.00 | 0.86 | 0.86 | 73 | 1014.0 |
| 20260501221720 | 8 | 225 | 0.0 | 0.0 | 0.00 | 0.86 | 0.86 | 74 | 1014.0 |
| 20260501221217 | 8 | 220 | 0.0 | 0.0 | 0.00 | 0.86 | 0.86 | 73 | 1013.7 |
| 20260501220714 | 7 | 206 | 3.2 | 3.2 | 0.00 | 0.86 | 0.86 | 73 | 1013.7 |
| 20260501220211 | 8 | 224 | 0.0 | 0.0 | 0.00 | 0.86 | 0.86 | 73 | 1013.7 |
| 20260501215709 | 8 | 222 | 0.0 | 0.0 | 0.00 | 0.86 | 0.86 | 73 | 1013.7 |
| 20260501215203 | 8 | 228 | 0.0 | 0.0 | 0.00 | 0.86 | 0.86 | 73 | 1013.7 |
| 20260501214658 | 8 | 160 | 6.4 | 6.4 | 0.00 | 0.86 | 0.86 | 75 | 1013.7 |
| 20260501214155 | 8 | 228 | 3.2 | 3.2 | 0.00 | 0.86 | 0.86 | 75 | 1013.7 |
| 20260501213652 | 8 | 216 | 3.2 | 3.2 | 0.00 | 0.86 | 0.86 | 75 | 1013.7 |
| 20260501213147 | 8 | 179 | 1.6 | 1.6 | 0.00 | 0.86 | 0.86 | 74 | 1013.7 |
| 20260501212644 | 8 | 162 | 0.0 | 0.0 | 0.00 | 0.86 | 0.86 | 74 | 1013.7 |
| 20260501212141 | 8 | 180 | 0.0 | 0.0 | 0.00 | 0.86 | 0.86 | 74 | 1013.7 |
| 20260501211638 | 8 | 164 | 3.2 | 3.2 | 0.00 | 0.86 | 0.86 | 72 | 1013.7 |
| 20260501211135 | 8 | 166 | 0.0 | 0.0 | 0.00 | 0.86 | 0.86 | 74 | 1013.7 |